Fond du Lac, WI

3:30 AM CST on February 23, 2017 (GMT -0600)
Fond du Lac County

Weather History for KFLD - January, 2013

Change the Weather History Date:

Sunday, January 27, 2013

  Actual Average Record
Temperature  
Mean Temperature 28 °F -  
Max Temperature 33 °F 23 °F 51 °F (2006)
Min Temperature 23 °F 9 °F -17 °F (1955)
Degree Days  
Heating Degree Days 37    
Moisture  
Dew Point 24 °F    
Average Humidity 81    
Maximum Humidity 93    
Minimum Humidity 57    
Precipitation  
Precipitation 0.18 in - - ()
Sea Level Pressure  
Sea Level Pressure 30.09 in    
Wind  
Wind Speed 12 mph (SSE)    
Max Wind Speed 17 mph    
Max Gust Speed 22 mph    
Visibility 5 miles    
Events Fog , Rain , Snow , Thunderstorm    
Averages and records for this station are not official NWS values.
T = Trace of Precipitation, MM = Missing Value Source: NWS Daily Summary

Daily Weather History Graph

Daily Weather History Graph

Search for Another Location

Airport or City:

Trip Planner

Search our weather history database for the weather conditions in past years. The results will help you decide how hot, cold, wet, or windy it might be!

Date:

Astronomy

Jan. 27, 2013 Rise Set
Actual Time 7:15 AM CST 4:58 PM CST
Civil Twilight 6:44 AM CST 5:29 PM CST
Nautical Twilight 6:10 AM CST 6:04 PM CST
Astronomical Twilight 5:36 AM CST 6:38 PM CST
Moon 5:56 PM CST (1/27) 7:05 AM CST (1/27)
Length of Visible Light 10h 44m
Length of Day
9h 42m
Full, 100% of the Moon is Illuminated
Jan 27
Full
Feb 3
Last Quarter
Feb 10
New
Feb 17
First Quarter
Feb 25
Full

Hourly Weather History & Observations

Time (CST) Temp. Windchill Dew Point Humidity Pressure Visibility Wind Dir Wind Speed Gust Speed Precip Events Conditions
12:53 AM 23.0 °F 12.4 °F 10.9 °F 60% 30.34 in 10.0 mi South 10.4 mph - N/A   Overcast
1:53 AM 24.1 °F 13.7 °F 12.0 °F 60% 30.35 in 10.0 mi South 10.4 mph - N/A   Overcast
2:53 AM 24.1 °F 14.4 °F 10.9 °F 57% 30.34 in 10.0 mi South 9.2 mph - N/A   Overcast
3:53 AM 24.1 °F 13.1 °F 12.9 °F 62% 30.32 in 10.0 mi South 11.5 mph - N/A   Overcast
4:53 AM 24.1 °F 14.4 °F 14.0 °F 65% 30.31 in 10.0 mi South 9.2 mph - N/A   Overcast
5:53 AM 24.1 °F 12.5 °F 14.0 °F 65% 30.29 in 10.0 mi SSE 12.7 mph - N/A   Overcast
6:53 AM 24.1 °F 12.5 °F 15.1 °F 69% 30.28 in 10.0 mi South 12.7 mph - N/A   Overcast
7:53 AM 25.0 °F 12.6 °F 16.0 °F 69% 30.28 in 10.0 mi South 15.0 mph - N/A   Scattered Clouds
8:53 AM 26.1 °F 14.0 °F 17.1 °F 69% 30.28 in 10.0 mi South 15.0 mph - N/A   Overcast
9:53 AM 27.0 °F 15.6 °F 18.0 °F 69% 30.28 in 10.0 mi South 13.8 mph - N/A   Scattered Clouds
10:53 AM 28.9 °F 19.2 °F 19.0 °F 67% 30.25 in 10.0 mi South 11.5 mph - N/A   Mostly Cloudy
11:53 AM 30.0 °F 20.0 °F 19.9 °F 66% 30.21 in 10.0 mi South 12.7 mph - 0.00 in   Overcast
12:53 PM 30.9 °F 20.7 °F 21.0 °F 67% 30.18 in 9.0 mi South 13.8 mph - 0.00 in   Overcast
1:33 PM 30.2 °F 20.2 °F 23.0 °F 75% 30.13 in 2.5 mi South 12.7 mph - 0.00 in Snow Light Snow
1:44 PM 30.2 °F 20.8 °F 21.2 °F 69% 30.13 in 1.5 mi SSE 11.5 mph - 0.00 in Snow Light Snow
1:53 PM 30.0 °F 21.1 °F 23.0 °F 75% 30.16 in 1.0 mi SSE 10.4 mph - 0.00 in Snow Light Snow
2:01 PM 28.4 °F 19.7 °F 24.8 °F 86% 30.12 in 0.5 mi SE 9.2 mph - 0.00 in Snow Snow
2:19 PM 28.4 °F 19.7 °F 24.8 °F 86% 30.11 in 0.5 mi SE 9.2 mph - 0.00 in Fog , Snow Snow
2:28 PM 28.4 °F 19.1 °F 24.8 °F 86% 30.10 in 1.2 mi SE 10.4 mph - 0.01 in Snow Light Snow
2:36 PM 28.4 °F 19.1 °F 24.8 °F 86% 30.10 in 0.8 mi SSE 10.4 mph - 0.02 in Snow Light Snow
2:53 PM 28.0 °F 17.5 °F 25.0 °F 88% 30.15 in 0.5 mi South 12.7 mph - 0.03 in Fog , Snow Snow
2:58 PM 28.4 °F 18.5 °F 24.8 °F 86% 30.11 in 0.5 mi SSE 11.5 mph - 0.00 in Fog , Snow Snow
3:22 PM 28.4 °F 19.1 °F 24.8 °F 86% 30.09 in 0.8 mi SSE 10.4 mph - 0.02 in Snow Light Snow
3:31 PM 28.4 °F 17.0 °F 24.8 °F 86% 30.08 in 1.5 mi SSE 15.0 mph - 0.02 in Snow Light Snow
3:38 PM 28.4 °F 16.2 °F 24.8 °F 86% 30.08 in 1.8 mi SSE 17.3 mph - 0.02 in Snow Light Snow
3:48 PM 28.4 °F 16.2 °F 24.8 °F 86% 30.07 in 1.5 mi SSE 17.3 mph - 0.03 in Snow Light Snow
3:53 PM 28.9 °F 17.3 °F 25.0 °F 85% 30.09 in 1.8 mi SE 16.1 mph - 0.03 in Snow Light Snow
4:06 PM 28.4 °F 18.5 °F 26.6 °F 93% 30.05 in 1.5 mi SE 11.5 mph - 0.02 in Snow Light Snow
4:13 PM 28.4 °F 19.1 °F 26.6 °F 93% 30.05 in 2.0 mi SE 10.4 mph - 0.02 in   Overcast
4:25 PM 30.2 °F 20.2 °F 26.6 °F 86% 30.06 in 4.0 mi SE 12.7 mph 20.7 mph 0.02 in   Overcast
4:53 PM 30.0 °F 20.0 °F 26.1 °F 85% 30.04 in 5.0 mi ESE 12.7 mph - 0.03 in Rain Light Freezing Rain
5:10 PM 30.2 °F 18.9 °F 26.6 °F 86% 30.00 in 8.0 mi SE 16.1 mph 20.7 mph 0.00 in   Overcast
5:19 PM 30.2 °F 19.3 °F 26.6 °F 86% 29.99 in 7.0 mi SE 15.0 mph - 0.00 in   Overcast
5:30 PM 32.0 °F 20.8 °F 28.4 °F 87% 29.98 in 4.0 mi SE 17.3 mph - 0.00 in Rain Light Freezing Rain
5:37 PM 32.0 °F 22.5 °F 28.4 °F 87% 29.98 in 3.0 mi SE 12.7 mph 21.9 mph 0.01 in Rain Light Freezing Rain
5:49 PM 32.0 °F 22.1 °F 28.4 °F 87% 29.99 in 4.0 mi SE 13.8 mph - 0.03 in Rain , Thunderstorm Light Freezing Rain
5:53 PM 32.0 °F 22.1 °F 28.9 °F 88% 30.02 in 4.0 mi SE 13.8 mph 20.7 mph 0.06 in Rain , Thunderstorm Light Freezing Rain
6:04 PM 33.8 °F 24.8 °F 28.4 °F 81% 29.98 in 4.0 mi SE 12.7 mph - 0.01 in Rain Light Freezing Rain
6:23 PM 33.8 °F 24.3 °F 30.2 °F 87% 29.99 in 2.5 mi SE 13.8 mph - 0.02 in Rain Light Freezing Rain
6:53 PM 33.1 °F 23.9 °F 30.0 °F 89% 30.01 in 2.5 mi SE 12.7 mph - 0.03 in Rain Light Freezing Rain
7:07 PM 33.8 °F 24.3 °F 30.2 °F 87% 29.96 in 3.0 mi SE 13.8 mph - 0.00 in Rain Light Freezing Rain
7:17 PM 33.8 °F 23.5 °F 30.2 °F 87% 29.96 in 4.0 mi SSE 16.1 mph - 0.00 in Rain Light Freezing Rain
7:53 PM 33.1 °F 23.4 °F 30.0 °F 89% 29.99 in 3.0 mi SSE 13.8 mph - 0.00 in Rain Light Freezing Rain
8:09 PM 32.0 °F 23.6 °F 30.2 °F 93% 29.95 in 3.0 mi SSE 10.4 mph - 0.00 in Rain Light Freezing Rain
8:14 PM 32.0 °F 22.1 °F 30.2 °F 93% 29.94 in 4.0 mi SSE 13.8 mph - 0.00 in   Overcast
8:24 PM 32.0 °F 21.6 °F 30.2 °F 93% 29.94 in 4.0 mi SSE 15.0 mph - 0.00 in   Overcast
8:53 PM 32.0 °F 22.1 °F 28.9 °F 88% 29.95 in 4.0 mi SSE 13.8 mph - 0.00 in   Overcast
9:06 PM 32.0 °F 21.6 °F 28.4 °F 87% 29.91 in 5.0 mi SSE 15.0 mph - N/A   Overcast
9:53 PM 32.0 °F 22.5 °F 30.0 °F 92% 29.93 in 5.0 mi SSE 12.7 mph - N/A   Overcast
10:53 PM 33.1 °F 24.4 °F 30.0 °F 89% 29.90 in 4.0 mi SSE 11.5 mph - N/A   Overcast
11:53 PM 33.1 °F 26.1 °F 30.0 °F 89% 29.89 in 5.0 mi SSE 8.1 mph - N/A   Overcast